Wind_Speed
35 34 29 31 35 38 36 40 39 31 26 22 27 31 36 34 34 35 32 32 32 31 26 27 29 24 17 16 15 23 15 12 3 3 13 17 19 27 29 28 24 26 33
33 34 31 35 37 39 43 41 39 35 29 28 31 38 40 42 45 42 42 40 41 42 38 38 33 23 23 24 19 23 26 20 8 4 9 12 18 23 26 25 30 34 41
29 32 36 36 39 41 41 41 34 37 32 38 37 41 39 44 45 41 39 45 45 42 42 40 34 28 27 32 22 13 20 19 19 12 10 16 15 18 18 22 27 28 37
29 30 35 37 37 34 35 37 41 34 37 44 46 41 42 39 42 45 47 43 35 36 39 42 35 31 28 27 20 27 27 24 22 16 13 14 17 23 18 21 28 22 22
26 28 29 29 28 28 32 32 31 34 38 43 34 42 42 44 40 40 42 37 34 31 34 33 33 29 28 30 29 29 27 25 21 18 17 15 17 22 21 20 21 30 33
26 26 24 25 27 30 29 31 31 33 38 39 42 44 45 46 40 37 37 34 32 29 30 29 31 35 33 28 27 26 29 27 22 20 17 15 17 20 22 22 22 18 7
24 26 25 25 26 29 29 29 33 36 38 40 40 41 43 42 35 33 31 32 32 32 31 29 31 33 34 29 27 26 26 24 24 17 15 15 15 20 21 23 22 19 17
24 27 26 25 27 29 30 30 32 34 36 32 36 35 39 40 36 30 28 30 31 32 30 29 30 30 30 28 25 24 26 25 23 20 16 16 18 20 19 20 22 23 21
23 25 26 26 27 29 30 31 31 31 33 34 32 35 38 38 35 32 27 26 25 30 33 32 31 31 29 26 24 24 24 26 21 19 17 19 19 19 19 21 22 24 16
17 24 28 28 29 29 28 30 29 31 29 30 35 37 34 38 34 34 31 27 27 25 30 32 29 28 27 27 28 24 23 22 21 20 22 25 26 28 28 24 21 17 18
17 17 19 23 26 27 26 25 28 32 36 37 35 36 39 35 35 34 34 35 30 29 32 35 32 28 27 27 26 25 21 18 20 17 18 22 28 31 32 29 22 19 19
15 16 17 20 18 23 25 27 27 25 27 28 30 30 30 34 33 31 31 29 27 29 29 27 25 24 24 24 24 22 23 25 26 26 19 20 23 28 30 30 27 22 21
13 14 15 16 18 21 23 26 28 27 24 25 26 27 29 28 35 32 30 30 27 28 22 21 21 23 24 28 24 26 29 30 27 25 24 24 26 25 26 28 30 29 28
10 11 13 16 18 20 21 19 19 22 22 22 25 26 25 24 22 28 29 30 29 28 26 26 29 29 29 28 30 30 30 27 25 23 24 28 30 30 27 27 24 27 25
9 10 14 15 15 15 16 18 17 11 17 19 21 23 24 25 22 21 22 22 21 20 24 27 30 32 33 32 31 29 31 29 30 28 25 25 27 26 29 26 25 25 20
9 9 10 10 12 12 11 13 14 14 13 14 16 18 18 16 17 19 20 20 20 18 27 28 26 26 22 22 24 24 25 25 27 28 26 22 24 25 28 28 24 23 22
10 8 8 9 11 11 12 14 14 14 12 13 14 16 16 15 16 17 18 19 20 24 24 25 25 24 18 18 20 19 24 27 28 28 27 24 24 25 25 24 24 23 25
10 8 7 8 10 12 12 12 13 14 15 16 17 15 16 15 16 15 14 16 19 20 19 19 22 23 24 25 28 29 31 32 33 32 30 28 27 25 24 22 22 22 24
7 7 6 6 8 10 10 9 11 10 9 12 14 15 16 15 15 15 15 17 16 18 18 18 18 19 21 20 22 25 26 28 31 31 29 28 28 26 26 26 24 26 26
5 5 5 4 5 8 8 7 9 8 8 11 12 13 16 18 19 19 17 17 17 17 17 18 18 19 22 21 21 23 25 26 30 31 30 29 28 27 25 25 24 24 24
4 4 4 2 4 5 6 6 8 8 10 12 13 14 15 16 17 17 17 16 16 17 16 17 18 18 20 21 21 21 22 23 26 28 30 28 27 28 27 27 24 24 23
3 2 1 3 3 4 6 7 9 10 11 13 15 16 16 18 19 19 18 17 16 17 16 17 17 18 19 21 20 20 21 21 25 27 29 27 26 26 27 28 25 25 24
2 3 5 5 5 6 8 9 11 12 13 14 16 17 17 18 21 22 22 21 19 18 17 17 17 18 18 20 19 18 18 20 23 27 27 25 25 24 25 26 26 25 23
2 6 7 7 6 8 10 13 14 15 14 14 16 16 18 20 22 23 23 22 23 20 18 18 18 17 19 19 15 16 15 18 21 24 22 21 22 23 24 25 24 25 24
6 8 7 8 9 11 14 16 18 17 12 13 14 17 20 20 19 20 20 21 21 19 18 19 17 17 19 17 17 17 17 18 20 22 21 20 21 22 22 22 21 22 23
8 8 8 9 11 13 14 13 9 9 10 12 14 14 15 16 18 20 20 21 21 20 18 18 16 19 20 18 18 17 18 17 19 22 21 19 21 21 20 20 19 20 22
Wind_Direction
4 5 3 21 27 29 28 26 25 24 21 42 59 68 72 73 83 94 65 67 64 77 72 68 63 43 57 45 27 0 20 57 7 330 267 263 259 273 279 272 259 262 273
8 12 9 25 32 34 34 28 26 27 31 43 62 67 69 69 72 75 77 69 62 53 54 58 50 50 53 55 31 37 360 43 16 333 312 316 312 291 277 260 264 270 266
11 19 17 20 31 33 34 35 25 32 33 45 51 61 65 68 70 68 70 68 69 63 57 56 50 44 40 56 36 32 23 42 30 9 335 340 336 3 340 299 280 284 275
19 25 23 19 31 32 34 33 37 31 37 42 43 51 58 62 66 68 69 65 62 65 63 55 49 43 39 49 43 36 32 38 30 17 7 357 2 348 357 1 338 320 316
25 30 26 24 30 35 39 37 39 42 43 49 44 50 53 55 56 61 63 62 56 56 58 57 49 46 47 46 43 38 38 39 35 28 13 359 3 358 357 337 332 323 318
31 30 29 31 31 34 36 36 38 46 48 49 47 48 50 51 53 58 60 60 58 54 52 48 45 39 39 42 45 46 47 42 34 29 15 1 355 350 342 340 334 341 334
36 36 32 33 37 40 39 37 38 41 45 44 47 48 51 51 53 57 63 63 58 53 48 45 42 36 32 36 37 39 41 44 41 31 11 356 342 346 337 336 330 322 305
40 41 38 38 41 42 45 43 41 43 45 46 47 47 51 48 45 49 55 61 56 55 51 45 44 37 32 31 30 30 27 29 23 22 14 354 350 345 343 332 323 323 323
45 44 43 44 46 45 43 41 44 46 46 46 47 46 48 46 43 42 49 54 54 48 51 45 38 35 29 28 32 26 22 16 12 9 14 11 6 6 357 353 353 352 344
58 54 54 55 56 53 47 47 47 49 49 47 47 49 45 46 40 40 43 49 46 41 39 43 37 36 33 29 34 26 19 5 3 357 2 11 13 15 14 10 351 343 343
65 64 57 54 56 60 59 56 53 51 50 49 48 47 48 39 40 37 36 40 41 37 34 31 30 27 28 29 30 27 17 9 18 6 359 359 9 11 10 6 360 340 323
73 69 62 60 57 58 58 56 57 54 49 44 43 40 41 42 37 37 36 38 36 42 36 32 30 29 30 31 27 20 20 23 18 16 5 359 356 353 1 358 355 350 336
73 72 67 63 59 52 51 50 50 50 47 42 40 36 34 34 31 29 32 31 32 35 32 29 29 29 30 32 25 23 25 21 12 6 360 352 346 345 347 350 352 350 343
78 70 68 63 57 53 51 46 48 52 52 44 41 36 37 38 44 34 28 21 24 26 26 28 28 28 28 25 21 23 22 17 11 2 349 349 353 355 347 346 339 339 338
81 66 62 58 59 61 59 50 49 61 48 43 37 34 28 33 31 30 29 31 27 24 30 31 26 24 20 16 13 13 12 10 4 359 352 347 347 345 343 344 341 339 337
83 66 67 71 67 63 64 64 59 56 49 45 39 33 32 29 23 23 24 24 23 28 34 29 26 23 19 11 8 5 4 2 358 355 353 348 343 340 339 343 342 343 338
100 81 79 76 64 54 58 59 51 47 46 39 34 32 29 25 22 19 14 15 20 21 28 24 24 20 14 13 10 5 0 1 359 358 354 349 344 340 341 337 337 339 335
94 86 82 74 55 44 50 48 37 32 26 24 25 21 22 20 17 16 11 14 22 25 22 15 12 9 6 5 5 3 359 359 360 357 357 353 351 343 334 333 332 330 332
111 98 80 73 47 38 36 32 30 23 25 17 8 12 13 13 11 8 5 10 7 5 4 2 359 360 357 353 355 355 356 355 355 354 353 351 349 344 337 335 330 331 332
121 95 76 80 44 34 27 21 16 12 8 3 1 359 359 358 359 359 357 353 352 350 349 349 349 350 349 344 342 344 345 350 351 351 348 347 347 345 339 331 328 325 326
138 97 71 34 27 22 9 354 351 348 347 347 348 348 347 341 339 339 339 337 334 335 336 338 339 338 341 340 336 333 334 339 344 344 344 341 341 341 342 338 328 325 323
142 167 22 334 325 327 334 338 333 330 329 335 338 339 336 332 327 320 321 320 321 323 323 323 325 326 333 334 331 325 325 331 336 339 338 336 336 336 338 337 329 328 324
212 298 277 287 292 304 315 319 318 316 322 328 330 327 327 326 323 316 309 312 308 310 312 312 316 317 325 328 327 326 326 328 331 335 333 331 333 335 335 332 329 327 324
343 314 293 281 286 303 312 310 312 314 318 320 320 320 322 323 324 324 321 307 303 300 302 305 306 307 317 325 329 329 326 324 330 333 330 329 329 334 333 332 333 331 331
302 314 297 297 308 317 316 314 313 309 311 316 318 320 320 318 319 324 326 330 322 300 300 303 298 298 309 313 315 322 323 323 328 333 332 328 327 328 331 331 333 334 335
296 310 320 320 319 316 318 322 333 330 326 327 328 331 332 331 329 329 330 333 335 333 320 305 298 300 300 300 304 311 316 317 323 327 328 328 328 330 332 335 336 336 340
Height
785 776 770 758 749 740 735 727 720 718 711 704 692 683 679 679 673 676 698 697 703 698 710 714 703 718 719 724 728 731 716 718 725 725 726 729 729 731 729 729 732 733 734
790 781 775 763 753 745 739 734 732 727 719 712 702 695 694 694 692 700 702 709 708 704 712 708 720 728 731 725 738 727 715 720 729 731 726 727 726 726 725 726 726 725 721
796 787 779 769 759 753 747 745 742 734 733 720 711 705 706 703 703 713 718 714 717 721 725 727 739 740 735 725 743 744 734 729 733 732 733 732 727 724 722 721 721 718 717
800 793 786 779 773 768 763 757 747 746 743 729 718 718 714 718 716 716 718 727 737 737 737 736 741 743 742 736 743 733 732 730 732 737 739 735 734 731 727 725 718 714 710
806 801 798 793 787 782 777 772 765 762 748 738 748 733 730 725 726 727 728 740 745 749 747 746 752 753 748 745 741 740 741 735 739 743 746 745 739 737 736 732 727 719 705
810 807 806 801 795 787 784 780 776 770 765 759 754 751 746 742 745 745 748 751 757 761 755 757 753 752 750 750 749 751 745 743 749 750 751 755 750 749 743 736 730 724 715
817 813 811 807 802 797 792 788 783 776 771 769 767 765 762 761 764 766 765 767 766 762 765 764 757 757 755 754 753 753 754 752 754 756 760 762 757 751 746 736 735 731 726
823 818 816 813 808 803 800 796 791 787 782 783 781 780 774 774 775 774 774 771 771 773 773 771 766 764 765 759 759 760 757 756 759 759 762 762 756 750 745 740 736 728 722
829 826 823 819 814 811 806 804 802 798 794 792 790 788 783 786 786 784 782 780 780 778 774 772 771 768 768 766 763 762 760 760 759 763 760 759 757 753 748 740 731 723 718
834 832 829 825 822 818 816 811 808 805 804 801 797 794 794 793 795 792 786 782 785 783 781 778 779 774 772 772 764 766 767 768 766 764 759 757 755 747 740 736 735 731 727
837 836 834 831 829 826 824 821 817 812 809 806 805 804 802 801 798 797 794 790 787 786 781 778 778 775 775 774 775 775 776 774 768 764 760 755 746 740 737 739 738 733 734
841 839 838 835 834 831 828 826 823 821 818 816 813 812 810 809 806 803 801 797 794 791 791 789 787 785 784 782 781 781 776 771 764 761 760 753 747 743 739 739 736 732 730
844 843 842 840 837 834 831 828 825 824 823 822 820 817 815 812 807 806 805 801 799 795 797 797 793 790 788 785 783 779 774 769 767 762 755 752 752 748 744 741 731 729 725
847 846 844 842 840 838 836 834 832 831 830 829 827 825 823 819 815 813 811 807 804 801 800 798 795 794 791 789 785 781 776 774 771 764 763 757 751 746 742 738 734 726 719
848 847 844 844 843 842 842 841 839 837 836 834 832 828 824 822 822 822 821 819 815 812 808 804 801 794 790 787 784 780 776 773 770 767 762 759 752 747 744 737 732 727 718
848 849 848 848 846 845 844 843 842 841 841 839 837 835 833 830 827 823 820 818 816 811 807 805 799 798 798 795 787 782 780 776 773 768 762 759 754 750 743 735 730 726 719
848 850 851 850 848 847 845 842 842 841 841 840 838 836 834 832 827 824 822 819 815 812 811 810 804 803 802 796 792 789 780 777 773 768 763 759 756 751 744 737 732 728 721
848 849 851 850 849 848 845 844 844 842 841 839 837 836 833 831 829 827 826 823 820 818 815 811 805 801 796 790 786 783 779 776 772 767 761 756 753 751 746 741 736 731 723
849 850 849 849 849 848 845 845 844 844 842 840 838 835 833 830 828 826 824 820 817 815 811 808 805 800 796 793 790 786 783 778 773 768 764 761 757 752 746 740 733 727 722
848 848 848 848 848 847 847 846 845 844 842 840 837 834 831 828 825 823 820 817 814 812 808 805 801 798 795 792 789 786 782 778 774 770 766 761 757 752 746 741 735 730 724
847 847 848 848 848 847 847 846 845 844 842 839 836 833 831 828 826 823 820 817 814 811 807 804 801 799 796 793 789 786 783 780 776 771 766 761 756 751 746 741 736 731 725
846 847 847 847 846 846 846 845 844 842 840 837 834 831 829 827 825 822 819 816 813 810 807 804 801 798 795 792 789 785 782 779 775 771 765 760 756 751 746 741 736 731 725
846 846 847 847 845 845 843 843 842 840 837 834 832 829 827 825 822 819 816 813 810 807 804 801 798 796 794 790 787 784 780 777 774 769 764 759 755 751 746 741 736 730 725
846 846 845 845 844 843 842 841 839 837 834 831 829 827 824 822 818 815 811 808 805 802 800 798 795 793 790 787 785 782 779 776 772 767 763 758 754 749 745 740 735 729 723
845 844 844 844 842 841 839 837 835 833 831 829 826 824 821 818 815 811 807 803 799 796 795 793 791 789 787 784 781 779 775 772 769 765 761 757 752 748 743 738 733 728 722
843 843 842 840 839 837 835 833 831 830 828 826 824 821 818 815 812 809 805 801 797 794 790 788 787 785 783 780 778 775 773 770 767 763 758 754 750 746 742 737 732 727 722